QPF
0.06 0.09 0.07 0.06 0.06 0.06 0.08 0.12 0.14 0.13 0.13 0.12 0.10 0.09 0.09 0.11 0.12 0.09 0.07 0.06 0.05 0.04 0.03 0.03 0.02 0.02 0.02 0.02 0.03 0.03 0.04 0.05 0.05 0.05 0.06 0.07 0.08 0.09
0.08 0.10 0.08 0.06 0.06 0.06 0.08 0.11 0.12 0.14 0.14 0.12 0.10 0.08 0.10 0.12 0.18 0.18 0.16 0.15 0.14 0.09 0.05 0.04 0.03 0.03 0.04 0.04 0.04 0.05 0.06 0.06 0.05 0.04 0.04 0.04 0.05 0.05
0.08 0.08 0.06 0.07 0.10 0.10 0.11 0.11 0.12 0.15 0.15 0.12 0.11 0.09 0.10 0.10 0.13 0.15 0.16 0.18 0.16 0.15 0.11 0.08 0.07 0.05 0.04 0.04 0.04 0.04 0.05 0.05 0.05 0.04 0.04 0.04 0.04 0.03
0.09 0.10 0.06 0.08 0.10 0.10 0.11 0.10 0.10 0.12 0.12 0.10 0.09 0.10 0.11 0.12 0.14 0.16 0.13 0.14 0.14 0.16 0.17 0.14 0.11 0.10 0.08 0.06 0.05 0.05 0.04 0.05 0.06 0.05 0.05 0.05 0.05 0.04
0.10 0.08 0.06 0.08 0.08 0.07 0.09 0.09 0.09 0.10 0.12 0.09 0.08 0.10 0.13 0.15 0.17 0.16 0.14 0.15 0.11 0.12 0.16 0.14 0.13 0.13 0.12 0.10 0.08 0.06 0.04 0.05 0.06 0.06 0.07 0.07 0.06 0.06
0.09 0.09 0.07 0.07 0.07 0.08 0.08 0.06 0.07 0.08 0.10 0.09 0.09 0.10 0.12 0.14 0.15 0.15 0.15 0.16 0.13 0.10 0.13 0.15 0.15 0.13 0.11 0.09 0.07 0.05 0.05 0.05 0.06 0.06 0.07 0.07 0.06 0.06
0.09 0.08 0.06 0.06 0.07 0.06 0.04 0.05 0.06 0.07 0.07 0.07 0.07 0.09 0.09 0.12 0.11 0.12 0.14 0.14 0.13 0.11 0.13 0.13 0.13 0.10 0.08 0.07 0.06 0.05 0.06 0.06 0.06 0.06 0.07 0.08 0.08 0.07
0.07 0.06 0.05 0.05 0.05 0.04 0.02 0.03 0.06 0.07 0.06 0.07 0.07 0.07 0.06 0.09 0.10 0.09 0.11 0.12 0.11 0.11 0.12 0.12 0.11 0.10 0.08 0.06 0.06 0.06 0.07 0.07 0.07 0.07 0.07 0.08 0.08 0.08
0.06 0.06 0.04 0.03 0.05 0.04 0.03 0.03 0.04 0.04 0.05 0.05 0.05 0.05 0.05 0.07 0.07 0.08 0.09 0.09 0.09 0.09 0.10 0.09 0.08 0.07 0.06 0.06 0.07 0.07 0.07 0.07 0.07 0.07 0.07 0.06 0.06 0.06
0.05 0.04 0.04 0.04 0.04 0.05 0.06 0.06 0.05 0.04 0.04 0.03 0.03 0.03 0.05 0.06 0.06 0.05 0.07 0.08 0.08 0.08 0.08 0.08 0.06 0.06 0.06 0.08 0.09 0.08 0.08 0.07 0.06 0.05 0.04 0.04 0.04 0.04
0.05 0.03 0.03 0.03 0.04 0.03 0.05 0.06 0.05 0.04 0.02 0.02 0.01 0.01 0.02 0.02 0.03 0.04 0.06 0.06 0.06 0.06 0.05 0.06 0.06 0.07 0.09 0.11 0.10 0.09 0.07 0.06 0.06 0.05 0.03 0.02 0.02 0.03
0.05 0.04 0.03 0.03 0.03 0.02 0.04 0.05 0.04 0.03 0.02 0.03 0.02 0.02 0.02 0.01 0.01 0.02 0.03 0.05 0.06 0.06 0.05 0.06 0.07 0.08 0.10 0.12 0.12 0.14 0.13 0.11 0.08 0.06 0.04 0.03 0.03 0.03
0.07 0.06 0.04 0.04 0.02 0.02 0.02 0.02 0.02 0.02 0.03 0.03 0.03 0.03 0.03 0.03 0.03 0.03 0.04 0.05 0.06 0.06 0.06 0.07 0.08 0.09 0.10 0.12 0.14 0.18 0.20 0.21 0.19 0.15 0.10 0.08 0.06 0.05
0.05 0.04 0.02 0.02 0.01 0.01 0.01 0.01 0.01 0.02 0.03 0.04 0.04 0.04 0.04 0.05 0.04 0.04 0.05 0.04 0.05 0.06 0.05 0.05 0.07 0.08 0.09 0.11 0.11 0.12 0.15 0.18 0.20 0.19 0.16 0.13 0.11 0.09
0.02 0.02 0.01 0.00 0.00 0.01 0.01 0.01 0.01 0.02 0.03 0.03 0.03 0.04 0.05 0.06 0.05 0.05 0.06 0.06 0.05 0.04 0.03 0.03 0.04 0.05 0.06 0.07 0.08 0.07 0.07 0.09 0.11 0.11 0.10 0.10 0.10 0.10
0.01 0.01 0.01 0.01 0.01 0.01 0.01 0.01 0.01 0.02 0.02 0.03 0.03 0.04 0.04 0.04 0.04 0.04 0.05 0.06 0.06 0.05 0.04 0.03 0.03 0.03 0.03 0.04 0.05 0.05 0.05 0.05 0.06 0.07 0.07 0.07 0.08 0.07
0.01 0.01 0.01 0.01 0.01 0.01 0.01 0.01 0.01 0.01 0.01 0.02 0.02 0.02 0.02 0.02 0.01 0.02 0.02 0.03 0.04 0.04 0.04 0.03 0.02 0.02 0.01 0.02 0.03 0.04 0.04 0.05 0.06 0.06 0.06 0.07 0.07 0.06
0.01 0.01 0.01 0.01 0.01 0.01 0.00 0.00 0.00 0.00 0.01 0.01 0.02 0.02 0.01 0.01 0.00 0.00 0.00 0.01 0.01 0.01 0.01 0.01 0.01 0.01 0.01 0.02 0.02 0.02 0.02 0.03 0.03 0.04 0.05 0.06 0.06 0.05
0.01 0.02 0.02 0.02 0.02 0.02 0.02 0.01 0.01 0.01 0.02 0.02 0.02 0.01 0.01 0.01 0.01 0.01 0.01 0.00 0.01 0.02 0.01 0.01 0.01 0.01 0.01 0.01 0.01 0.01 0.01 0.02 0.02 0.02 0.02 0.03 0.03 0.03
0.01 0.01 0.01 0.02 0.02 0.03 0.03 0.03 0.03 0.03 0.03 0.02 0.02 0.02 0.03 0.02 0.02 0.02 0.01 0.01 0.02 0.03 0.02 0.02 0.01 0.01 0.01 0.01 0.01 0.02 0.02 0.02 0.02 0.01 0.01 0.01 0.01 0.01
0.02 0.02 0.02 0.02 0.02 0.02 0.02 0.02 0.02 0.02 0.02 0.02 0.02 0.02 0.03 0.03 0.02 0.02 0.02 0.02 0.02 0.02 0.02 0.02 0.01 0.01 0.02 0.02 0.02 0.02 0.01 0.01 0.01 0.00 0.00 0.00 0.01 0.01
0.02 0.02 0.03 0.03 0.03 0.03 0.03 0.02 0.01 0.01 0.01 0.02 0.01 0.01 0.02 0.02 0.02 0.02 0.02 0.02 0.02 0.03 0.03 0.02 0.02 0.02 0.02 0.02 0.02 0.02 0.01 0.01 0.01 0.01 0.01 0.01 0.01 0.01
0.02 0.03 0.03 0.03 0.03 0.03 0.02 0.01 0.01 0.01 0.01 0.01 0.01 0.01 0.01 0.01 0.01 0.01 0.01 0.01 0.02 0.02 0.03 0.03 0.02 0.02 0.02 0.01 0.01 0.02 0.02 0.02 0.02 0.02 0.01 0.01 0.01 0.00
MSLP
1020.46 1020.39 1020.42 1020.56 1020.80 1021.13 1021.51 1021.89 1022.25 1022.56 1022.80 1022.97 1023.08 1023.13 1023.16 1023.16 1023.16 1023.15 1023.14 1023.13 1023.10 1023.07 1023.02 1022.95 1022.86 1022.74 1022.58 1022.38 1022.14 1021.85 1021.51 1021.12 1020.71 1020.27 1019.83 1019.39 1018.98 1018.60
1021.32 1021.21 1021.16 1021.20 1021.32 1021.51 1021.76 1022.02 1022.29 1022.53 1022.74 1022.90 1023.02 1023.11 1023.17 1023.20 1023.23 1023.24 1023.25 1023.26 1023.27 1023.28 1023.30 1023.32 1023.33 1023.32 1023.28 1023.19 1023.04 1022.82 1022.51 1022.13 1021.69 1021.20 1020.68 1020.15 1019.63 1019.14
1022.21 1022.05 1021.94 1021.89 1021.90 1021.98 1022.11 1022.28 1022.46 1022.64 1022.82 1022.98 1023.11 1023.21 1023.29 1023.34 1023.36 1023.37 1023.37 1023.37 1023.38 1023.40 1023.45 1023.52 1023.61 1023.69 1023.74 1023.75 1023.69 1023.54 1023.30 1022.96 1022.53 1022.04 1021.50 1020.94 1020.37 1019.81
1023.15 1022.97 1022.82 1022.70 1022.64 1022.63 1022.67 1022.76 1022.88 1023.02 1023.17 1023.32 1023.45 1023.55 1023.62 1023.65 1023.66 1023.63 1023.59 1023.54 1023.51 1023.52 1023.56 1023.64 1023.75 1023.87 1023.99 1024.06 1024.07 1023.98 1023.80 1023.51 1023.13 1022.68 1022.17 1021.63 1021.07 1020.51
1024.13 1023.95 1023.78 1023.64 1023.53 1023.47 1023.47 1023.50 1023.58 1023.69 1023.81 1023.94 1024.05 1024.13 1024.18 1024.18 1024.13 1024.05 1023.94 1023.83 1023.74 1023.69 1023.68 1023.73 1023.82 1023.94 1024.07 1024.16 1024.20 1024.15 1024.02 1023.78 1023.46 1023.06 1022.62 1022.14 1021.64 1021.13
1025.11 1024.96 1024.81 1024.67 1024.56 1024.48 1024.45 1024.46 1024.51 1024.59 1024.68 1024.78 1024.86 1024.91 1024.91 1024.86 1024.76 1024.61 1024.43 1024.25 1024.08 1023.95 1023.88 1023.86 1023.90 1023.97 1024.06 1024.13 1024.16 1024.12 1024.00 1023.80 1023.53 1023.20 1022.83 1022.43 1022.03 1021.61
1026.04 1025.93 1025.82 1025.71 1025.62 1025.56 1025.53 1025.52 1025.55 1025.59 1025.65 1025.71 1025.75 1025.75 1025.70 1025.60 1025.44 1025.24 1025.00 1024.75 1024.51 1024.31 1024.16 1024.07 1024.03 1024.03 1024.05 1024.06 1024.04 1023.97 1023.83 1023.64 1023.40 1023.12 1022.81 1022.51 1022.20 1021.89
1026.84 1026.79 1026.73 1026.68 1026.63 1026.58 1026.56 1026.55 1026.55 1026.56 1026.57 1026.58 1026.57 1026.52 1026.43 1026.29 1026.09 1025.84 1025.57 1025.28 1024.99 1024.74 1024.52 1024.36 1024.24 1024.15 1024.09 1024.02 1023.92 1023.79 1023.61 1023.40 1023.16 1022.90 1022.65 1022.41 1022.19 1021.98
1027.47 1027.48 1027.48 1027.48 1027.47 1027.46 1027.44 1027.41 1027.39 1027.36 1027.32 1027.28 1027.21 1027.12 1026.99 1026.82 1026.60 1026.34 1026.06 1025.76 1025.46 1025.18 1024.93 1024.71 1024.52 1024.36 1024.21 1024.05 1023.87 1023.66 1023.42 1023.17 1022.90 1022.64 1022.40 1022.20 1022.03 1021.90
1027.91 1027.97 1028.03 1028.08 1028.10 1028.11 1028.09 1028.05 1027.99 1027.92 1027.83 1027.73 1027.62 1027.49 1027.33 1027.15 1026.93 1026.69 1026.42 1026.15 1025.86 1025.59 1025.32 1025.08 1024.85 1024.63 1024.41 1024.17 1023.92 1023.63 1023.32 1023.01 1022.69 1022.40 1022.15 1021.95 1021.81 1021.71
1028.18 1028.29 1028.39 1028.47 1028.52 1028.54 1028.51 1028.45 1028.36 1028.24 1028.10 1027.95 1027.80 1027.64 1027.47 1027.29 1027.09 1026.88 1026.65 1026.41 1026.17 1025.92 1025.67 1025.43 1025.18 1024.93 1024.66 1024.37 1024.05 1023.70 1023.33 1022.96 1022.59 1022.26 1021.97 1021.74 1021.58 1021.48
1028.36 1028.49 1028.61 1028.71 1028.77 1028.78 1028.74 1028.65 1028.52 1028.36 1028.19 1028.00 1027.82 1027.64 1027.46 1027.29 1027.12 1026.95 1026.76 1026.57 1026.37 1026.15 1025.94 1025.71 1025.46 1025.20 1024.91 1024.59 1024.23 1023.85 1023.43 1023.01 1022.60 1022.22 1021.88 1021.61 1021.40 1021.27
1028.49 1028.62 1028.74 1028.83 1028.88 1028.88 1028.82 1028.71 1028.55 1028.36 1028.16 1027.95 1027.75 1027.56 1027.39 1027.23 1027.08 1026.94 1026.79 1026.63 1026.46 1026.29 1026.09 1025.89 1025.66 1025.40 1025.11 1024.79 1024.42 1024.02 1023.59 1023.14 1022.70 1022.28 1021.89 1021.57 1021.31 1021.12
1028.61 1028.72 1028.82 1028.89 1028.91 1028.89 1028.80 1028.67 1028.50 1028.29 1028.08 1027.86 1027.66 1027.47 1027.31 1027.16 1027.02 1026.89 1026.76 1026.62 1026.48 1026.32 1026.14 1025.95 1025.73 1025.49 1025.22 1024.91 1024.56 1024.17 1023.74 1023.30 1022.84 1022.39 1021.98 1021.61 1021.30 1021.05
1028.73 1028.80 1028.86 1028.88 1028.87 1028.81 1028.71 1028.56 1028.38 1028.18 1027.97 1027.76 1027.57 1027.40 1027.24 1027.10 1026.97 1026.84 1026.71 1026.56 1026.41 1026.25 1026.07 1025.89 1025.68 1025.46 1025.21 1024.93 1024.61 1024.24 1023.84 1023.41 1022.97 1022.51 1022.08 1021.68 1021.33 1021.04
1028.80 1028.82 1028.82 1028.80 1028.74 1028.65 1028.53 1028.37 1028.20 1028.01 1027.83 1027.65 1027.48 1027.33 1027.19 1027.05 1026.92 1026.77 1026.62 1026.45 1026.28 1026.09 1025.90 1025.71 1025.51 1025.30 1025.07 1024.82 1024.53 1024.21 1023.85 1023.45 1023.02 1022.58 1022.14 1021.73 1021.36 1021.04
1028.79 1028.74 1028.68 1028.60 1028.50 1028.38 1028.24 1028.09 1027.93 1027.78 1027.63 1027.49 1027.37 1027.24 1027.12 1026.99 1026.84 1026.67 1026.49 1026.29 1026.07 1025.85 1025.63 1025.42 1025.21 1025.01 1024.80 1024.57 1024.32 1024.04 1023.72 1023.35 1022.95 1022.53 1022.11 1021.69 1021.32 1020.99
1028.62 1028.51 1028.39 1028.26 1028.12 1027.97 1027.83 1027.69 1027.57 1027.46 1027.36 1027.27 1027.19 1027.10 1026.99 1026.86 1026.70 1026.51 1026.29 1026.05 1025.79 1025.53 1025.28 1025.04 1024.82 1024.61 1024.41 1024.21 1023.98 1023.73 1023.44 1023.11 1022.74 1022.34 1021.92 1021.52 1021.14 1020.81
1028.27 1028.12 1027.95 1027.78 1027.61 1027.45 1027.32 1027.20 1027.12 1027.05 1027.01 1026.97 1026.93 1026.87 1026.78 1026.66 1026.49 1026.27 1026.02 1025.73 1025.43 1025.13 1024.85 1024.58 1024.34 1024.13 1023.93 1023.74 1023.53 1023.30 1023.03 1022.72 1022.37 1021.98 1021.58 1021.18 1020.81 1020.47
1027.74 1027.56 1027.37 1027.18 1027.01 1026.85 1026.74 1026.66 1026.61 1026.59 1026.59 1026.59 1026.59 1026.56 1026.48 1026.36 1026.17 1025.94 1025.65 1025.34 1025.00 1024.67 1024.35 1024.07 1023.81 1023.59 1023.39 1023.19 1022.99 1022.77 1022.51 1022.20 1021.86 1021.48 1021.08 1020.68 1020.31 1019.97
1027.08 1026.89 1026.70 1026.52 1026.36 1026.23 1026.14 1026.09 1026.08 1026.10 1026.13 1026.17 1026.18 1026.16 1026.09 1025.96 1025.76 1025.50 1025.19 1024.85 1024.49 1024.14 1023.80 1023.50 1023.23 1023.00 1022.79 1022.59 1022.39 1022.16 1021.90 1021.59 1021.25 1020.87 1020.47 1020.06 1019.68 1019.33
1026.32 1026.16 1025.99 1025.84 1025.70 1025.61 1025.55 1025.54 1025.56 1025.60 1025.66 1025.70 1025.72 1025.69 1025.61 1025.46 1025.24 1024.96 1024.64 1024.28 1023.90 1023.54 1023.19 1022.88 1022.61 1022.37 1022.16 1021.95 1021.74 1021.51 1021.25 1020.94 1020.59 1020.20 1019.80 1019.38 1018.99 1018.63
1025.51 1025.39 1025.27 1025.16 1025.07 1025.02 1025.00 1025.01 1025.04 1025.10 1025.15 1025.18 1025.18 1025.13 1025.02 1024.85 1024.61 1024.31 1023.97 1023.60 1023.23 1022.86 1022.52 1022.22 1021.94 1021.71 1021.49 1021.29 1021.08 1020.85 1020.58 1020.28 1019.93 1019.55 1019.14 1018.72 1018.32 1017.94
Thickness
5749 5749 5747 5747 5747 5746 5744 5740 5731 5724 5723 5728 5731 5734 5734 5731 5729 5726 5725 5723 5720 5718 5716 5714 5712 5709 5707 5704 5702 5700 5699 5697 5695 5693 5691 5689 5688 5687
5747 5746 5745 5745 5745 5744 5743 5741 5737 5729 5722 5725 5726 5729 5730 5729 5725 5722 5720 5718 5716 5714 5712 5710 5708 5705 5703 5700 5698 5695 5693 5691 5689 5688 5686 5684 5683 5681
5744 5744 5742 5743 5741 5740 5740 5738 5734 5730 5721 5722 5725 5726 5725 5723 5721 5719 5716 5714 5711 5709 5707 5705 5702 5700 5697 5695 5692 5690 5687 5685 5683 5681 5679 5678 5677 5675
5740 5739 5739 5739 5737 5735 5734 5732 5730 5728 5723 5718 5719 5720 5719 5718 5717 5715 5713 5710 5707 5705 5702 5700 5697 5693 5691 5688 5686 5684 5681 5679 5676 5674 5673 5671 5669 5668
5736 5734 5734 5733 5731 5731 5730 5728 5726 5726 5722 5717 5715 5715 5714 5713 5711 5711 5709 5706 5704 5701 5698 5695 5692 5688 5684 5682 5679 5677 5675 5672 5669 5667 5665 5664 5662 5660
5732 5730 5729 5727 5726 5725 5724 5723 5722 5719 5717 5713 5710 5708 5707 5706 5705 5702 5699 5699 5697 5695 5692 5689 5685 5681 5677 5675 5672 5670 5667 5664 5661 5659 5657 5656 5654 5653
5727 5725 5724 5722 5721 5720 5719 5717 5715 5713 5710 5707 5703 5700 5698 5696 5695 5695 5692 5691 5689 5688 5684 5682 5678 5673 5669 5666 5664 5661 5658 5655 5653 5651 5649 5647 5646 5644
5721 5719 5719 5716 5715 5714 5712 5710 5709 5706 5703 5699 5696 5692 5690 5689 5689 5688 5684 5681 5678 5679 5676 5673 5670 5666 5662 5658 5656 5653 5650 5647 5645 5642 5640 5638 5636 5635
5715 5713 5713 5711 5709 5707 5706 5704 5702 5700 5697 5693 5689 5685 5683 5682 5681 5680 5678 5675 5672 5672 5669 5663 5661 5657 5654 5651 5648 5645 5642 5639 5636 5633 5631 5629 5627 5625
5710 5707 5704 5702 5701 5699 5698 5696 5694 5691 5690 5687 5684 5680 5678 5676 5674 5673 5671 5670 5667 5664 5662 5655 5651 5648 5646 5642 5640 5636 5633 5630 5627 5624 5621 5619 5617 5615
5702 5699 5697 5694 5693 5692 5690 5687 5684 5682 5681 5679 5676 5673 5671 5669 5666 5665 5662 5659 5655 5652 5650 5646 5642 5638 5635 5632 5629 5626 5624 5620 5617 5614 5612 5609 5607 5605
5695 5692 5689 5686 5684 5683 5682 5679 5674 5672 5671 5670 5667 5665 5663 5660 5658 5655 5652 5649 5645 5641 5639 5636 5633 5629 5624 5621 5618 5615 5612 5610 5607 5604 5601 5598 5596 5593
5688 5685 5681 5678 5677 5675 5674 5671 5668 5666 5664 5662 5659 5656 5654 5651 5648 5645 5643 5641 5636 5631 5629 5627 5623 5619 5614 5609 5607 5604 5602 5599 5595 5592 5589 5587 5584 5582
5681 5678 5675 5672 5669 5667 5665 5663 5661 5659 5657 5654 5650 5647 5644 5641 5639 5636 5634 5631 5627 5623 5620 5617 5613 5608 5604 5599 5595 5592 5590 5587 5584 5581 5577 5574 5572 5569
5673 5670 5667 5665 5662 5660 5657 5655 5652 5650 5648 5644 5640 5637 5635 5632 5630 5627 5624 5621 5617 5613 5610 5606 5602 5598 5594 5589 5585 5581 5578 5575 5572 5569 5565 5562 5559 5557
5665 5662 5659 5657 5654 5652 5649 5646 5643 5641 5638 5634 5630 5628 5626 5623 5620 5617 5613 5610 5605 5601 5598 5595 5591 5588 5583 5579 5575 5571 5567 5563 5560 5557 5554 5551 5548 5545
5656 5654 5651 5648 5645 5642 5640 5637 5634 5631 5627 5624 5622 5618 5616 5613 5609 5606 5602 5599 5594 5589 5585 5582 5579 5576 5573 5568 5564 5560 5556 5552 5549 5545 5542 5538 5535 5533
5648 5645 5642 5639 5637 5633 5630 5627 5624 5621 5618 5615 5612 5609 5605 5602 5598 5595 5592 5588 5583 5579 5575 5572 5568 5564 5560 5556 5551 5548 5544 5540 5537 5534 5530 5527 5523 5521
5640 5637 5633 5630 5627 5624 5621 5618 5614 5611 5608 5604 5601 5598 5596 5592 5588 5584 5580 5577 5573 5569 5565 5562 5558 5553 5548 5543 5539 5536 5532 5529 5526 5522 5519 5515 5513 5510
5630 5627 5624 5621 5618 5615 5611 5608 5604 5601 5598 5595 5591 5588 5585 5582 5578 5574 5570 5566 5562 5558 5555 5551 5547 5543 5538 5534 5530 5526 5523 5520 5516 5512 5509 5506 5503 5500
5621 5619 5615 5612 5609 5605 5602 5599 5595 5592 5588 5584 5581 5578 5575 5571 5567 5564 5560 5555 5552 5548 5544 5540 5537 5534 5530 5527 5522 5519 5515 5511 5508 5503 5500 5497 5494 5491
5613 5611 5607 5604 5600 5596 5593 5589 5585 5581 5577 5574 5571 5567 5565 5562 5558 5554 5550 5546 5542 5539 5535 5532 5529 5525 5522 5518 5514 5511 5507 5503 5499 5495 5492 5488 5484 5481
5605 5602 5599 5595 5591 5587 5583 5579 5575 5571 5567 5564 5561 5558 5555 5552 5548 5545 5542 5538 5534 5530 5526 5522 5519 5516 5513 5510 5507 5503 5500 5496 5492 5488 5484 5481 5478 5475